COSMOS 2251 DEB, 33836

Orbit data source: Space-Track

COSMOS 2251 DEB, 33836 is space debris in LEO originally from a launch on Wed, 16 Jun 1993 UTC launched from the Plesetsk Missile And Space Complex (PKMTR). The debris from Iridium 33, an American commercial communications satellite, has been tracked extensively since its accidental collision with the defunct Russian satellite Cosmos 2251 in 2009. This event, occurring at high speed in low Earth orbit (LEO), generated thousands of pieces of space debris, significantly increasing the risk of further collisions. The Iridium 33 debris cloud has impacted space traffic management and orbital debris mitigation strategies, making it a subject of ongoing study in space situational awareness.

Loading next visibility...
Identifier
33836, 1993-036CD
Orbit
LEO
Country
Flag of CISCIS
Related business
Manufacturer
Unknown
Mission
Spacecraft
Bus & Motor
Unknown
Mass
Unknown
Launch date (UTC)
1993-06-16 (32 years ago)
Launch vehicle
Unknown
Launch site
Plesetsk Missile And Space Complex (PKMTR)
Object type
Payload
Rocket body
Debris
Shape & HBR
Unknown shape, 0.2 m
Radar Cross Section
Small (<0.1 m²)

Expand to show TLE details & history
Last TLE update: 13 hours ago

TLE from 13 hours ago
0 COSMOS 2251 DEB
1 33836U 93036CD  25300.24629465  .00008863  00000-0  12145-2 0  9992
2 33836  73.9985 350.6032 0024140 217.9099 212.2736 14.78376074634017
Epoch: 2025-10-27T05:54Z
TLE epoch observation values (Epoch: 2025-10-27T05:54:39.857Z)
Latitude
64.72171°
Longitude
-96.75753°
Altitude
659.588 km
Speed
7.526 km/s
True Right ascension
01h 51m 02s
True Declination
64° 35' 12"
Sunlit
Object was in full shadow at epoch
Visualization orbit readout
Latitude
Unknown
Longitude
Unknown
Altitude
Unknown
Speed
Unknown
Apparent Right ascension
Unknown
Apparent Declination
Unknown
Sunlit
N/A
Visualization observer readout
Local Sidereal Time
14:19:09
Azimuth
Unknown
Elevation
Unknown
Doppler factor
Unknown
Orbital elements
Apogee altitude
648.958 km
Perigee altitude
615.113 km
Semi-major axis
7,010.172 km
Eccentricity
0.00241
Inclination
73.9985°
RAAN
350.6032°
Arg. of periapsis
217.9099°
True anomaly
212.12627°
Mean anomaly
212.2736°
Eccentric anomaly
212.1999°
Mean motion
3.69786 °/min
Orbital period
97.35 mins
BSTAR
0.0012145
Loading maneuver chart data...
Computing Atmospheric mass density...

Documentation

Showing up to 5 results
|